Tracking 20472 objects as of 28-Feb-2020
HD Live streaming from Space Station
objects crossing your sky now

ORCA-1

Track ORCA-1 now!
10-day predictions


NORAD ID: 44418
Int'l Code: 2019-022H
Perigee: 474.3 km
Apogee: 489.4 km
Inclination: 51.6 °
Period: 94.1 minutes
Semi major axis: 6852 km
RCS: Unknown
Launch date: April 17, 2019
Source: Egypt (EGYP)
Launch site: WALLOPS ISLAND (WLPIS)
aabbcc
Your satellite tracking list
Your tracking list is empty




NASA's NSSDC Master Catalog

Two Line Element Set (TLE):
1 44418U 19022H   20058.78644018 +.00001131 +00000-0 +50171-4 0  9992
2 44418 051.6431 205.0856 0011032 278.2954 081.6776 15.30359999031331
Source of the keplerian elements: AFSPC